owner,sensor,date,latitude,longitude,sea_surface_height_above_sea_level,qcFlag 
COMPS,ioos:station:USF.COMPS:ARP:1,2009-12-01T00:00:00Z,28.4330,-82.6670,0.068,1111122 
COMPS,ioos:station:USF.COMPS:ARP:1,2009-12-01T00:06:00Z,28.4330,-82.6670,0.082,1111122 
COMPS,ioos:station:USF.COMPS:ARP:1,2009-12-01T00:12:00Z,28.4330,-82.6670,0.094,1111122 
COMPS,ioos:station:USF.COMPS:ARP:1,2009-12-01T00:18:00Z,28.4330,-82.6670,0.108,1111122 
COMPS,ioos:station:USF.COMPS:ARP:1,2009-12-01T00:24:00Z,28.4330,-82.6670,0.12,1111122 
COMPS,ioos:station:USF.COMPS:ARP:1,2009-12-01T00:30:00Z,28.4330,-82.6670,0.139,1111122 
COMPS,ioos:station:USF.COMPS:ARP:1,2009-12-01T00:36:00Z,28.4330,-82.6670,0.152,1111122 
COMPS,ioos:station:USF.COMPS:ARP:1,2009-12-01T00:42:00Z,28.4330,-82.6670,0.168,1111122 
COMPS,ioos:station:USF.COMPS:ARP:1,2009-12-01T00:48:00Z,28.4330,-82.6670,0.188,1111122 
COMPS,ioos:station:USF.COMPS:ARP:1,2009-12-01T00:54:00Z,28.4330,-82.6670,0.207,1111122 
COMPS,ioos:station:USF.COMPS:ARP:1,2009-12-01T01:00:00Z,28.4330,-82.6670,0.224,1111122 
COMPS,ioos:station:USF.COMPS:ARP:1,2009-12-01T01:06:00Z,28.4330,-82.6670,0.244,1111122 
COMPS,ioos:station:USF.COMPS:ARP:1,2009-12-01T01:12:00Z,28.4330,-82.6670,0.265,1111122 
COMPS,ioos:station:USF.COMPS:ARP:1,2009-12-01T01:18:00Z,28.4330,-82.6670,0.286,1111122 
COMPS,ioos:station:USF.COMPS:ARP:1,2009-12-01T01:24:00Z,28.4330,-82.6670,0.308,1111122 
COMPS,ioos:station:USF.COMPS:ARP:1,2009-12-01T01:30:00Z,28.4330,-82.6670,0.33,1111122 
COMPS,ioos:station:USF.COMPS:ARP:1,2009-12-01T01:36:00Z,28.4330,-82.6670,0.355,1111122 
COMPS,ioos:station:USF.COMPS:ARP:1,2009-12-01T01:42:00Z,28.4330,-82.6670,0.378,1111122 
COMPS,ioos:station:USF.COMPS:ARP:1,2009-12-01T01:48:00Z,28.4330,-82.6670,0.399,1111122 
COMPS,ioos:station:USF.COMPS:ARP:1,2009-12-01T01:54:00Z,28.4330,-82.6670,0.425,1111122 
COMPS,ioos:station:USF.COMPS:ARP:1,2009-12-01T02:00:00Z,28.4330,-82.6670,0.446,1111122 
COMPS,ioos:station:USF.COMPS:ARP:1,2009-12-01T02:06:00Z,28.4330,-82.6670,0.467,1111122 
COMPS,ioos:station:USF.COMPS:ARP:1,2009-12-01T02:12:00Z,28.4330,-82.6670,0.489,1111122 
COMPS,ioos:station:USF.COMPS:ARP:1,2009-12-01T02:18:00Z,28.4330,-82.6670,0.508,1111122 
COMPS,ioos:station:USF.COMPS:ARP:1,2009-12-01T02:24:00Z,28.4330,-82.6670,0.529,1111122 
COMPS,ioos:station:USF.COMPS:ARP:1,2009-12-01T02:30:00Z,28.4330,-82.6670,0.546,1111122 
COMPS,ioos:station:USF.COMPS:ARP:1,2009-12-01T02:36:00Z,28.4330,-82.6670,0.563,1111122 
COMPS,ioos:station:USF.COMPS:ARP:1,2009-12-01T02:42:00Z,28.4330,-82.6670,0.58,1111122 
COMPS,ioos:station:USF.COMPS:ARP:1,2009-12-01T02:48:00Z,28.4330,-82.6670,0.595,1111122 
COMPS,ioos:station:USF.COMPS:ARP:1,2009-12-01T02:54:00Z,28.4330,-82.6670,0.616,1111122 
COMPS,ioos:station:USF.COMPS:ARP:1,2009-12-01T03:00:00Z,28.4330,-82.6670,0.633,1111122 
COMPS,ioos:station:USF.COMPS:ARP:1,2009-12-01T03:06:00Z,28.4330,-82.6670,0.649,1111122 
COMPS,ioos:station:USF.COMPS:ARP:1,2009-12-01T03:12:00Z,28.4330,-82.6670,0.664,1111122 
COMPS,ioos:station:USF.COMPS:ARP:1,2009-12-01T03:18:00Z,28.4330,-82.6670,0.681,1111122 
COMPS,ioos:station:USF.COMPS:ARP:1,2009-12-01T03:24:00Z,28.4330,-82.6670,0.695,1111122 
COMPS,ioos:station:USF.COMPS:ARP:1,2009-12-01T03:30:00Z,28.4330,-82.6670,0.705,1111122 
COMPS,ioos:station:USF.COMPS:ARP:1,2009-12-01T03:36:00Z,28.4330,-82.6670,0.715,1111122 
COMPS,ioos:station:USF.COMPS:ARP:1,2009-12-01T03:42:00Z,28.4330,-82.6670,0.722,1111122 
COMPS,ioos:station:USF.COMPS:ARP:1,2009-12-01T03:48:00Z,28.4330,-82.6670,0.73,1111122 
COMPS,ioos:station:USF.COMPS:ARP:1,2009-12-01T03:54:00Z,28.4330,-82.6670,0.732,1111122 
COMPS,ioos:station:USF.COMPS:ARP:1,2009-12-01T04:00:00Z,28.4330,-82.6670,0.737,1111122 
COMPS,ioos:station:USF.COMPS:ARP:1,2009-12-01T04:06:00Z,28.4330,-82.6670,0.739,1111122 
COMPS,ioos:station:USF.COMPS:ARP:1,2009-12-01T04:12:00Z,28.4330,-82.6670,0.731,1111122 
COMPS,ioos:station:USF.COMPS:ARP:1,2009-12-01T04:18:00Z,28.4330,-82.6670,0.72,1111122 
COMPS,ioos:station:USF.COMPS:ARP:1,2009-12-01T04:24:00Z,28.4330,-82.6670,0.72,1111122 
COMPS,ioos:station:USF.COMPS:ARP:1,2009-12-01T04:30:00Z,28.4330,-82.6670,0.717,1111122 
COMPS,ioos:station:USF.COMPS:ARP:1,2009-12-01T04:36:00Z,28.4330,-82.6670,0.704,1111122 
COMPS,ioos:station:USF.COMPS:ARP:1,2009-12-01T04:42:00Z,28.4330,-82.6670,0.703,1111122 
COMPS,ioos:station:USF.COMPS:ARP:1,2009-12-01T04:48:00Z,28.4330,-82.6670,0.694,1111122 
COMPS,ioos:station:USF.COMPS:ARP:1,2009-12-01T04:54:00Z,28.4330,-82.6670,0.676,1111122 
COMPS,ioos:station:USF.COMPS:ARP:1,2009-12-01T05:00:00Z,28.4330,-82.6670,0.662,1111122 
COMPS,ioos:station:USF.COMPS:ARP:1,2009-12-01T05:06:00Z,28.4330,-82.6670,0.648,1111122 
COMPS,ioos:station:USF.COMPS:ARP:1,2009-12-01T05:12:00Z,28.4330,-82.6670,0.636,1111122 
COMPS,ioos:station:USF.COMPS:ARP:1,2009-12-01T05:18:00Z,28.4330,-82.6670,0.624,1111122 
COMPS,ioos:station:USF.COMPS:ARP:1,2009-12-01T05:24:00Z,28.4330,-82.6670,0.606,1111122 
COMPS,ioos:station:USF.COMPS:ARP:1,2009-12-01T05:30:00Z,28.4330,-82.6670,0.587,1111122 
COMPS,ioos:station:USF.COMPS:ARP:1,2009-12-01T05:36:00Z,28.4330,-82.6670,0.576,1111122 
COMPS,ioos:station:USF.COMPS:ARP:1,2009-12-01T05:42:00Z,28.4330,-82.6670,0.555,1111122 
COMPS,ioos:station:USF.COMPS:ARP:1,2009-12-01T05:48:00Z,28.4330,-82.6670,0.534,1111122 
COMPS,ioos:station:USF.COMPS:ARP:1,2009-12-01T05:54:00Z,28.4330,-82.6670,0.513,1111122 
COMPS,ioos:station:USF.COMPS:ARP:1,2009-12-01T06:00:00Z,28.4330,-82.6670,0.491,1111122 
COMPS,ioos:station:USF.COMPS:ARP:1,2009-12-01T06:06:00Z,28.4330,-82.6670,0.474,1111122 
COMPS,ioos:station:USF.COMPS:ARP:1,2009-12-01T06:12:00Z,28.4330,-82.6670,0.458,1111122 
COMPS,ioos:station:USF.COMPS:ARP:1,2009-12-01T06:18:00Z,28.4330,-82.6670,0.439,1111122 
COMPS,ioos:station:USF.COMPS:ARP:1,2009-12-01T06:24:00Z,28.4330,-82.6670,0.417,1111122 
COMPS,ioos:station:USF.COMPS:ARP:1,2009-12-01T06:30:00Z,28.4330,-82.6670,0.401,1111122 
COMPS,ioos:station:USF.COMPS:ARP:1,2009-12-01T06:36:00Z,28.4330,-82.6670,0.384,1111122 
COMPS,ioos:station:USF.COMPS:ARP:1,2009-12-01T06:42:00Z,28.4330,-82.6670,0.363,1111122 
COMPS,ioos:station:USF.COMPS:ARP:1,2009-12-01T06:48:00Z,28.4330,-82.6670,0.346,1111122 
COMPS,ioos:station:USF.COMPS:ARP:1,2009-12-01T06:54:00Z,28.4330,-82.6670,0.331,1111122 
COMPS,ioos:station:USF.COMPS:ARP:1,2009-12-01T07:00:00Z,28.4330,-82.6670,0.314,1111122 
COMPS,ioos:station:USF.COMPS:ARP:1,2009-12-01T07:06:00Z,28.4330,-82.6670,0.294,1111122 
COMPS,ioos:station:USF.COMPS:ARP:1,2009-12-01T07:12:00Z,28.4330,-82.6670,0.28,1111122 
COMPS,ioos:station:USF.COMPS:ARP:1,2009-12-01T07:18:00Z,28.4330,-82.6670,0.263,1111122 
COMPS,ioos:station:USF.COMPS:ARP:1,2009-12-01T07:24:00Z,28.4330,-82.6670,0.24,1111122 
COMPS,ioos:station:USF.COMPS:ARP:1,2009-12-01T07:30:00Z,28.4330,-82.6670,0.221,1111122 
COMPS,ioos:station:USF.COMPS:ARP:1,2009-12-01T07:36:00Z,28.4330,-82.6670,0.2,1111122 
COMPS,ioos:station:USF.COMPS:ARP:1,2009-12-01T07:42:00Z,28.4330,-82.6670,0.178,1111122 
COMPS,ioos:station:USF.COMPS:ARP:1,2009-12-01T07:48:00Z,28.4330,-82.6670,0.157,1111122 
COMPS,ioos:station:USF.COMPS:ARP:1,2009-12-01T07:54:00Z,28.4330,-82.6670,0.137,1111122 
COMPS,ioos:station:USF.COMPS:ARP:1,2009-12-01T08:00:00Z,28.4330,-82.6670,0.115,1111122 
COMPS,ioos:station:USF.COMPS:ARP:1,2009-12-01T08:06:00Z,28.4330,-82.6670,0.092,1111122 
COMPS,ioos:station:USF.COMPS:ARP:1,2009-12-01T08:12:00Z,28.4330,-82.6670,0.071,1111122 
COMPS,ioos:station:USF.COMPS:ARP:1,2009-12-01T08:18:00Z,28.4330,-82.6670,0.049,1111122 
COMPS,ioos:station:USF.COMPS:ARP:1,2009-12-01T08:24:00Z,28.4330,-82.6670,0.028,1111122 
COMPS,ioos:station:USF.COMPS:ARP:1,2009-12-01T08:30:00Z,28.4330,-82.6670,0.007,1111122 
COMPS,ioos:station:USF.COMPS:ARP:1,2009-12-01T08:36:00Z,28.4330,-82.6670,-0.014,1111122 
COMPS,ioos:station:USF.COMPS:ARP:1,2009-12-01T08:42:00Z,28.4330,-82.6670,-0.035,1111122 
COMPS,ioos:station:USF.COMPS:ARP:1,2009-12-01T08:48:00Z,28.4330,-82.6670,-0.056,1111122 
COMPS,ioos:station:USF.COMPS:ARP:1,2009-12-01T08:54:00Z,28.4330,-82.6670,-0.076,1111122 
COMPS,ioos:station:USF.COMPS:ARP:1,2009-12-01T09:00:00Z,28.4330,-82.6670,-0.096,1111122 
COMPS,ioos:station:USF.COMPS:ARP:1,2009-12-01T09:06:00Z,28.4330,-82.6670,-0.116,1111122 
COMPS,ioos:station:USF.COMPS:ARP:1,2009-12-01T09:12:00Z,28.4330,-82.6670,-0.135,1111122 
COMPS,ioos:station:USF.COMPS:ARP:1,2009-12-01T09:18:00Z,28.4330,-82.6670,-0.153,1111122 
COMPS,ioos:station:USF.COMPS:ARP:1,2009-12-01T09:24:00Z,28.4330,-82.6670,-0.171,1111122 
COMPS,ioos:station:USF.COMPS:ARP:1,2009-12-01T09:30:00Z,28.4330,-82.6670,-0.189,1111122 
COMPS,ioos:station:USF.COMPS:ARP:1,2009-12-01T09:36:00Z,28.4330,-82.6670,-0.206,1111122 
COMPS,ioos:station:USF.COMPS:ARP:1,2009-12-01T09:42:00Z,28.4330,-82.6670,-0.222,1111122 
COMPS,ioos:station:USF.COMPS:ARP:1,2009-12-01T09:48:00Z,28.4330,-82.6670,-0.239,1111122 
COMPS,ioos:station:USF.COMPS:ARP:1,2009-12-01T09:54:00Z,28.4330,-82.6670,-0.255,1111122 
COMPS,ioos:station:USF.COMPS:ARP:1,2009-12-01T10:00:00Z,28.4330,-82.6670,-0.271,1111122 
COMPS,ioos:station:USF.COMPS:ARP:1,2009-12-01T10:06:00Z,28.4330,-82.6670,-0.286,1111122 
COMPS,ioos:station:USF.COMPS:ARP:1,2009-12-01T10:12:00Z,28.4330,-82.6670,-0.301,1111122 
COMPS,ioos:station:USF.COMPS:ARP:1,2009-12-01T10:18:00Z,28.4330,-82.6670,-0.315,1111122 
COMPS,ioos:station:USF.COMPS:ARP:1,2009-12-01T10:24:00Z,28.4330,-82.6670,-0.329,1111122 
COMPS,ioos:station:USF.COMPS:ARP:1,2009-12-01T10:30:00Z,28.4330,-82.6670,-0.342,1111122 
COMPS,ioos:station:USF.COMPS:ARP:1,2009-12-01T10:36:00Z,28.4330,-82.6670,-0.355,1111122 
COMPS,ioos:station:USF.COMPS:ARP:1,2009-12-01T10:42:00Z,28.4330,-82.6670,-0.368,1111122 
COMPS,ioos:station:USF.COMPS:ARP:1,2009-12-01T10:48:00Z,28.4330,-82.6670,-0.379,1111122 
COMPS,ioos:station:USF.COMPS:ARP:1,2009-12-01T10:54:00Z,28.4330,-82.6670,-0.391,1111122 
COMPS,ioos:station:USF.COMPS:ARP:1,2009-12-01T11:00:00Z,28.4330,-82.6670,-0.401,1111122 
COMPS,ioos:station:USF.COMPS:ARP:1,2009-12-01T11:06:00Z,28.4330,-82.6670,-0.412,1111122 
COMPS,ioos:station:USF.COMPS:ARP:1,2009-12-01T11:12:00Z,28.4330,-82.6670,-0.423,1111122 
COMPS,ioos:station:USF.COMPS:ARP:1,2009-12-01T11:18:00Z,28.4330,-82.6670,-0.433,1111122 
COMPS,ioos:station:USF.COMPS:ARP:1,2009-12-01T11:24:00Z,28.4330,-82.6670,-0.443,1111122 
COMPS,ioos:station:USF.COMPS:ARP:1,2009-12-01T11:30:00Z,28.4330,-82.6670,-0.452,1111122 
COMPS,ioos:station:USF.COMPS:ARP:1,2009-12-01T11:36:00Z,28.4330,-82.6670,-0.461,1111122 
COMPS,ioos:station:USF.COMPS:ARP:1,2009-12-01T11:42:00Z,28.4330,-82.6670,-0.469,1111122 
COMPS,ioos:station:USF.COMPS:ARP:1,2009-12-01T11:48:00Z,28.4330,-82.6670,-0.477,1111122 
COMPS,ioos:station:USF.COMPS:ARP:1,2009-12-01T11:54:00Z,28.4330,-82.6670,-0.485,1111122 
COMPS,ioos:station:USF.COMPS:ARP:1,2009-12-01T12:00:00Z,28.4330,-82.6670,-0.493,1111122 
COMPS,ioos:station:USF.COMPS:ARP:1,2009-12-01T12:06:00Z,28.4330,-82.6670,-0.5,1111122 
COMPS,ioos:station:USF.COMPS:ARP:1,2009-12-01T12:12:00Z,28.4330,-82.6670,-0.507,1111122 
COMPS,ioos:station:USF.COMPS:ARP:1,2009-12-01T12:18:00Z,28.4330,-82.6670,-0.513,1111122 
COMPS,ioos:station:USF.COMPS:ARP:1,2009-12-01T12:24:00Z,28.4330,-82.6670,-0.519,1111122 
COMPS,ioos:station:USF.COMPS:ARP:1,2009-12-01T12:30:00Z,28.4330,-82.6670,-0.525,1111122 
COMPS,ioos:station:USF.COMPS:ARP:1,2009-12-01T12:36:00Z,28.4330,-82.6670,-0.531,1111122 
COMPS,ioos:station:USF.COMPS:ARP:1,2009-12-01T12:42:00Z,28.4330,-82.6670,-0.537,1111122 
COMPS,ioos:station:USF.COMPS:ARP:1,2009-12-01T12:48:00Z,28.4330,-82.6670,-0.542,1111122 
COMPS,ioos:station:USF.COMPS:ARP:1,2009-12-01T12:54:00Z,28.4330,-82.6670,-0.547,1111122 
COMPS,ioos:station:USF.COMPS:ARP:1,2009-12-01T13:00:00Z,28.4330,-82.6670,-0.552,1111122 
COMPS,ioos:station:USF.COMPS:ARP:1,2009-12-01T13:06:00Z,28.4330,-82.6670,-0.556,1111122 
COMPS,ioos:station:USF.COMPS:ARP:1,2009-12-01T13:12:00Z,28.4330,-82.6670,-0.56,1111122 
COMPS,ioos:station:USF.COMPS:ARP:1,2009-12-01T13:18:00Z,28.4330,-82.6670,-0.563,1111122 
COMPS,ioos:station:USF.COMPS:ARP:1,2009-12-01T13:24:00Z,28.4330,-82.6670,-0.566,1111122 
COMPS,ioos:station:USF.COMPS:ARP:1,2009-12-01T13:30:00Z,28.4330,-82.6670,-0.569,1111122 
COMPS,ioos:station:USF.COMPS:ARP:1,2009-12-01T13:36:00Z,28.4330,-82.6670,-0.571,1111122 
COMPS,ioos:station:USF.COMPS:ARP:1,2009-12-01T13:42:00Z,28.4330,-82.6670,-0.573,1111122 
COMPS,ioos:station:USF.COMPS:ARP:1,2009-12-01T13:48:00Z,28.4330,-82.6670,-0.575,1111122 
COMPS,ioos:station:USF.COMPS:ARP:1,2009-12-01T13:54:00Z,28.4330,-82.6670,-0.574,1111122 
COMPS,ioos:station:USF.COMPS:ARP:1,2009-12-01T14:00:00Z,28.4330,-82.6670,-0.574,1111122 
COMPS,ioos:station:USF.COMPS:ARP:1,2009-12-01T14:06:00Z,28.4330,-82.6670,-0.571,1111122 
COMPS,ioos:station:USF.COMPS:ARP:1,2009-12-01T14:12:00Z,28.4330,-82.6670,-0.567,1111122 
COMPS,ioos:station:USF.COMPS:ARP:1,2009-12-01T14:18:00Z,28.4330,-82.6670,-0.562,1111122 
COMPS,ioos:station:USF.COMPS:ARP:1,2009-12-01T14:24:00Z,28.4330,-82.6670,-0.556,1111122 
COMPS,ioos:station:USF.COMPS:ARP:1,2009-12-01T14:30:00Z,28.4330,-82.6670,-0.547,1111122 
COMPS,ioos:station:USF.COMPS:ARP:1,2009-12-01T14:36:00Z,28.4330,-82.6670,-0.537,1111122 
COMPS,ioos:station:USF.COMPS:ARP:1,2009-12-01T14:42:00Z,28.4330,-82.6670,-0.524,1111122 
COMPS,ioos:station:USF.COMPS:ARP:1,2009-12-01T14:48:00Z,28.4330,-82.6670,-0.51,1111122 
COMPS,ioos:station:USF.COMPS:ARP:1,2009-12-01T14:54:00Z,28.4330,-82.6670,-0.493,1111122 
COMPS,ioos:station:USF.COMPS:ARP:1,2009-12-01T15:00:00Z,28.4330,-82.6670,-0.474,1111122 
COMPS,ioos:station:USF.COMPS:ARP:1,2009-12-01T15:06:00Z,28.4330,-82.6670,-0.454,1111122 
COMPS,ioos:station:USF.COMPS:ARP:1,2009-12-01T15:12:00Z,28.4330,-82.6670,-0.429,1111122 
COMPS,ioos:station:USF.COMPS:ARP:1,2009-12-01T15:18:00Z,28.4330,-82.6670,-0.401,1111122 
COMPS,ioos:station:USF.COMPS:ARP:1,2009-12-01T15:24:00Z,28.4330,-82.6670,-0.371,1111122 
COMPS,ioos:station:USF.COMPS:ARP:1,2009-12-01T15:30:00Z,28.4330,-82.6670,-0.341,1111122 
COMPS,ioos:station:USF.COMPS:ARP:1,2009-12-01T15:36:00Z,28.4330,-82.6670,-0.308,1111122 
COMPS,ioos:station:USF.COMPS:ARP:1,2009-12-01T15:42:00Z,28.4330,-82.6670,-0.274,1111122 
COMPS,ioos:station:USF.COMPS:ARP:1,2009-12-01T15:48:00Z,28.4330,-82.6670,-0.238,1111122 
COMPS,ioos:station:USF.COMPS:ARP:1,2009-12-01T15:54:00Z,28.4330,-82.6670,-0.2,1111122 
COMPS,ioos:station:USF.COMPS:ARP:1,2009-12-01T16:00:00Z,28.4330,-82.6670,-0.161,1111122 
COMPS,ioos:station:USF.COMPS:ARP:1,2009-12-01T16:06:00Z,28.4330,-82.6670,-0.123,1111122 
COMPS,ioos:station:USF.COMPS:ARP:1,2009-12-01T16:12:00Z,28.4330,-82.6670,-0.086,1111122 
COMPS,ioos:station:USF.COMPS:ARP:1,2009-12-01T16:18:00Z,28.4330,-82.6670,-0.049,1111122 
COMPS,ioos:station:USF.COMPS:ARP:1,2009-12-01T16:24:00Z,28.4330,-82.6670,-0.016,1111122 
COMPS,ioos:station:USF.COMPS:ARP:1,2009-12-01T16:30:00Z,28.4330,-82.6670,0.019,1111122 
COMPS,ioos:station:USF.COMPS:ARP:1,2009-12-01T16:36:00Z,28.4330,-82.6670,0.051,1111122 
COMPS,ioos:station:USF.COMPS:ARP:1,2009-12-01T16:42:00Z,28.4330,-82.6670,0.082,1111122 
COMPS,ioos:station:USF.COMPS:ARP:1,2009-12-01T16:48:00Z,28.4330,-82.6670,0.112,1111122 
COMPS,ioos:station:USF.COMPS:ARP:1,2009-12-01T16:54:00Z,28.4330,-82.6670,0.138,1111122 
COMPS,ioos:station:USF.COMPS:ARP:1,2009-12-01T17:00:00Z,28.4330,-82.6670,0.16,1111122 
COMPS,ioos:station:USF.COMPS:ARP:1,2009-12-01T17:06:00Z,28.4330,-82.6670,0.182,1111122 
COMPS,ioos:station:USF.COMPS:ARP:1,2009-12-01T17:12:00Z,28.4330,-82.6670,0.204,1111122 
COMPS,ioos:station:USF.COMPS:ARP:1,2009-12-01T17:18:00Z,28.4330,-82.6670,0.222,1111122 
COMPS,ioos:station:USF.COMPS:ARP:1,2009-12-01T17:24:00Z,28.4330,-82.6670,0.238,1111122 
COMPS,ioos:station:USF.COMPS:ARP:1,2009-12-01T17:30:00Z,28.4330,-82.6670,0.254,1111122 
COMPS,ioos:station:USF.COMPS:ARP:1,2009-12-01T17:36:00Z,28.4330,-82.6670,0.268,1111122 
COMPS,ioos:station:USF.COMPS:ARP:1,2009-12-01T17:42:00Z,28.4330,-82.6670,0.279,1111122 
COMPS,ioos:station:USF.COMPS:ARP:1,2009-12-01T17:48:00Z,28.4330,-82.6670,0.29,1111122 
COMPS,ioos:station:USF.COMPS:ARP:1,2009-12-01T17:54:00Z,28.4330,-82.6670,0.304,1111122 
COMPS,ioos:station:USF.COMPS:ARP:1,2009-12-01T18:00:00Z,28.4330,-82.6670,0.315,1111122 
COMPS,ioos:station:USF.COMPS:ARP:1,2009-12-01T18:06:00Z,28.4330,-82.6670,0.319,1111122 
COMPS,ioos:station:USF.COMPS:ARP:1,2009-12-01T18:12:00Z,28.4330,-82.6670,0.324,1111122 
COMPS,ioos:station:USF.COMPS:ARP:1,2009-12-01T18:18:00Z,28.4330,-82.6670,0.336,1111122 
COMPS,ioos:station:USF.COMPS:ARP:1,2009-12-01T18:24:00Z,28.4330,-82.6670,0.334,1111122 
COMPS,ioos:station:USF.COMPS:ARP:1,2009-12-01T18:30:00Z,28.4330,-82.6670,0.347,1111122 
COMPS,ioos:station:USF.COMPS:ARP:1,2009-12-01T18:36:00Z,28.4330,-82.6670,0.355,1111122 
COMPS,ioos:station:USF.COMPS:ARP:1,2009-12-01T18:42:00Z,28.4330,-82.6670,0.354,1111122 
COMPS,ioos:station:USF.COMPS:ARP:1,2009-12-01T18:48:00Z,28.4330,-82.6670,0.347,1111122 
COMPS,ioos:station:USF.COMPS:ARP:1,2009-12-01T18:54:00Z,28.4330,-82.6670,0.328,1111122 
COMPS,ioos:station:USF.COMPS:ARP:1,2009-12-01T19:00:00Z,28.4330,-82.6670,0.304,1111122 
COMPS,ioos:station:USF.COMPS:ARP:1,2009-12-01T19:06:00Z,28.4330,-82.6670,0.287,1111122 
COMPS,ioos:station:USF.COMPS:ARP:1,2009-12-01T19:12:00Z,28.4330,-82.6670,0.282,1111122 
COMPS,ioos:station:USF.COMPS:ARP:1,2009-12-01T19:18:00Z,28.4330,-82.6670,0.271,1111122 
COMPS,ioos:station:USF.COMPS:ARP:1,2009-12-01T19:24:00Z,28.4330,-82.6670,0.259,1111122 
COMPS,ioos:station:USF.COMPS:ARP:1,2009-12-01T19:30:00Z,28.4330,-82.6670,0.242,1111122 
COMPS,ioos:station:USF.COMPS:ARP:1,2009-12-01T19:36:00Z,28.4330,-82.6670,0.239,1111122 
COMPS,ioos:station:USF.COMPS:ARP:1,2009-12-01T19:42:00Z,28.4330,-82.6670,0.237,1111122 
COMPS,ioos:station:USF.COMPS:ARP:1,2009-12-01T19:48:00Z,28.4330,-82.6670,0.225,1111122 
COMPS,ioos:station:USF.COMPS:ARP:1,2009-12-01T19:54:00Z,28.4330,-82.6670,0.21,1111122 
COMPS,ioos:station:USF.COMPS:ARP:1,2009-12-01T20:00:00Z,28.4330,-82.6670,0.2,1111122 
COMPS,ioos:station:USF.COMPS:ARP:1,2009-12-01T20:06:00Z,28.4330,-82.6670,0.197,1111122 
COMPS,ioos:station:USF.COMPS:ARP:1,2009-12-01T20:12:00Z,28.4330,-82.6670,0.185,1111122 
COMPS,ioos:station:USF.COMPS:ARP:1,2009-12-01T20:18:00Z,28.4330,-82.6670,0.176,1111122 
COMPS,ioos:station:USF.COMPS:ARP:1,2009-12-01T20:24:00Z,28.4330,-82.6670,0.176,1111122 
COMPS,ioos:station:USF.COMPS:ARP:1,2009-12-01T20:30:00Z,28.4330,-82.6670,0.167,1111122 
COMPS,ioos:station:USF.COMPS:ARP:1,2009-12-01T20:36:00Z,28.4330,-82.6670,0.156,1111122 
COMPS,ioos:station:USF.COMPS:ARP:1,2009-12-01T20:42:00Z,28.4330,-82.6670,0.148,1111122 
COMPS,ioos:station:USF.COMPS:ARP:1,2009-12-01T20:48:00Z,28.4330,-82.6670,0.139,1111122 
COMPS,ioos:station:USF.COMPS:ARP:1,2009-12-01T20:54:00Z,28.4330,-82.6670,0.121,1111122 
COMPS,ioos:station:USF.COMPS:ARP:1,2009-12-01T21:00:00Z,28.4330,-82.6670,0.104,1111122 
COMPS,ioos:station:USF.COMPS:ARP:1,2009-12-01T21:06:00Z,28.4330,-82.6670,0.089,1111122 
COMPS,ioos:station:USF.COMPS:ARP:1,2009-12-01T21:12:00Z,28.4330,-82.6670,0.07,1111122 
COMPS,ioos:station:USF.COMPS:ARP:1,2009-12-01T21:18:00Z,28.4330,-82.6670,0.057,1111122 
COMPS,ioos:station:USF.COMPS:ARP:1,2009-12-01T21:24:00Z,28.4330,-82.6670,0.043,1111122 
COMPS,ioos:station:USF.COMPS:ARP:1,2009-12-01T21:30:00Z,28.4330,-82.6670,0.033,1111122 
COMPS,ioos:station:USF.COMPS:ARP:1,2009-12-01T21:36:00Z,28.4330,-82.6670,0.022,1111122 
COMPS,ioos:station:USF.COMPS:ARP:1,2009-12-01T21:42:00Z,28.4330,-82.6670,0.013,1111122 
COMPS,ioos:station:USF.COMPS:ARP:1,2009-12-01T21:48:00Z,28.4330,-82.6670,0.004,1111122 
COMPS,ioos:station:USF.COMPS:ARP:1,2009-12-01T21:54:00Z,28.4330,-82.6670,-0.007,1111122 
COMPS,ioos:station:USF.COMPS:ARP:1,2009-12-01T22:00:00Z,28.4330,-82.6670,-0.017,1111122 
COMPS,ioos:station:USF.COMPS:ARP:1,2009-12-01T22:06:00Z,28.4330,-82.6670,-0.027,1111122 
COMPS,ioos:station:USF.COMPS:ARP:1,2009-12-01T22:12:00Z,28.4330,-82.6670,-0.029,1111122 
COMPS,ioos:station:USF.COMPS:ARP:1,2009-12-01T22:18:00Z,28.4330,-82.6670,-0.043,1111122 
COMPS,ioos:station:USF.COMPS:ARP:1,2009-12-01T22:24:00Z,28.4330,-82.6670,-0.052,1111122 
COMPS,ioos:station:USF.COMPS:ARP:1,2009-12-01T22:30:00Z,28.4330,-82.6670,-0.057,1111122 
COMPS,ioos:station:USF.COMPS:ARP:1,2009-12-01T22:36:00Z,28.4330,-82.6670,-0.069,1111122 
COMPS,ioos:station:USF.COMPS:ARP:1,2009-12-01T22:42:00Z,28.4330,-82.6670,-0.077,1111122 
COMPS,ioos:station:USF.COMPS:ARP:1,2009-12-01T22:48:00Z,28.4330,-82.6670,-0.073,1111122 
COMPS,ioos:station:USF.COMPS:ARP:1,2009-12-01T22:54:00Z,28.4330,-82.6670,-0.078,1111122 
COMPS,ioos:station:USF.COMPS:ARP:1,2009-12-01T23:00:00Z,28.4330,-82.6670,-0.079,1111122 
COMPS,ioos:station:USF.COMPS:ARP:1,2009-12-01T23:06:00Z,28.4330,-82.6670,-0.077,1111122 
COMPS,ioos:station:USF.COMPS:ARP:1,2009-12-01T23:12:00Z,28.4330,-82.6670,-0.076,1111122 
COMPS,ioos:station:USF.COMPS:ARP:1,2009-12-01T23:18:00Z,28.4330,-82.6670,-0.071,1111122 
COMPS,ioos:station:USF.COMPS:ARP:1,2009-12-01T23:24:00Z,28.4330,-82.6670,-0.063,1111122 
COMPS,ioos:station:USF.COMPS:ARP:1,2009-12-01T23:30:00Z,28.4330,-82.6670,-0.059,1111122 
COMPS,ioos:station:USF.COMPS:ARP:1,2009-12-01T23:36:00Z,28.4330,-82.6670,-0.044,1111122 
COMPS,ioos:station:USF.COMPS:ARP:1,2009-12-01T23:42:00Z,28.4330,-82.6670,-0.037,1111122 
COMPS,ioos:station:USF.COMPS:ARP:1,2009-12-01T23:48:00Z,28.4330,-82.6670,-0.019,1111122 
COMPS,ioos:station:USF.COMPS:ARP:1,2009-12-01T23:54:00Z,28.4330,-82.6670,-0.005,1111122 
COMPS,ioos:station:USF.COMPS:ARP:1,2009-12-02T00:00:00Z,28.4330,-82.6670,0.01,1111122 
COMPS,ioos:station:USF.COMPS:ARP:1,2009-12-02T00:06:00Z,28.4330,-82.6670,0.027,1111122 
COMPS,ioos:station:USF.COMPS:ARP:1,2009-12-02T00:12:00Z,28.4330,-82.6670,0.049,1111122 
COMPS,ioos:station:USF.COMPS:ARP:1,2009-12-02T00:18:00Z,28.4330,-82.6670,0.066,1111122 
COMPS,ioos:station:USF.COMPS:ARP:1,2009-12-02T00:24:00Z,28.4330,-82.6670,0.08,1111122 
COMPS,ioos:station:USF.COMPS:ARP:1,2009-12-02T00:30:00Z,28.4330,-82.6670,0.098,1111122 
COMPS,ioos:station:USF.COMPS:ARP:1,2009-12-02T00:36:00Z,28.4330,-82.6670,0.113,1111122 
COMPS,ioos:station:USF.COMPS:ARP:1,2009-12-02T00:42:00Z,28.4330,-82.6670,0.129,1111122 
COMPS,ioos:station:USF.COMPS:ARP:1,2009-12-02T00:48:00Z,28.4330,-82.6670,0.142,1111122 
COMPS,ioos:station:USF.COMPS:ARP:1,2009-12-02T00:54:00Z,28.4330,-82.6670,0.156,1111122 
COMPS,ioos:station:USF.COMPS:ARP:1,2009-12-02T01:00:00Z,28.4330,-82.6670,0.174,1111122 
COMPS,ioos:station:USF.COMPS:ARP:1,2009-12-02T01:06:00Z,28.4330,-82.6670,0.188,1111122 
COMPS,ioos:station:USF.COMPS:ARP:1,2009-12-02T01:12:00Z,28.4330,-82.6670,0.206,1111122 
COMPS,ioos:station:USF.COMPS:ARP:1,2009-12-02T01:18:00Z,28.4330,-82.6670,0.22,1111122 
COMPS,ioos:station:USF.COMPS:ARP:1,2009-12-02T01:24:00Z,28.4330,-82.6670,0.238,1111122 
COMPS,ioos:station:USF.COMPS:ARP:1,2009-12-02T01:30:00Z,28.4330,-82.6670,0.256,1111122 
COMPS,ioos:station:USF.COMPS:ARP:1,2009-12-02T01:36:00Z,28.4330,-82.6670,0.273,1111122 
COMPS,ioos:station:USF.COMPS:ARP:1,2009-12-02T01:42:00Z,28.4330,-82.6670,0.291,1111122 
COMPS,ioos:station:USF.COMPS:ARP:1,2009-12-02T01:48:00Z,28.4330,-82.6670,0.314,1111122 
COMPS,ioos:station:USF.COMPS:ARP:1,2009-12-02T01:54:00Z,28.4330,-82.6670,0.337,1111122 
COMPS,ioos:station:USF.COMPS:ARP:1,2009-12-02T02:00:00Z,28.4330,-82.6670,0.357,1111122 
COMPS,ioos:station:USF.COMPS:ARP:1,2009-12-02T02:06:00Z,28.4330,-82.6670,0.381,1111122 
COMPS,ioos:station:USF.COMPS:ARP:1,2009-12-02T02:12:00Z,28.4330,-82.6670,0.406,1111122 
COMPS,ioos:station:USF.COMPS:ARP:1,2009-12-02T02:18:00Z,28.4330,-82.6670,0.43,1111122 
COMPS,ioos:station:USF.COMPS:ARP:1,2009-12-02T02:24:00Z,28.4330,-82.6670,0.454,1111122 
COMPS,ioos:station:USF.COMPS:ARP:1,2009-12-02T02:30:00Z,28.4330,-82.6670,0.477,1111122 
COMPS,ioos:station:USF.COMPS:ARP:1,2009-12-02T02:36:00Z,28.4330,-82.6670,0.499,1111122 
COMPS,ioos:station:USF.COMPS:ARP:1,2009-12-02T02:42:00Z,28.4330,-82.6670,0.526,1111122 
COMPS,ioos:station:USF.COMPS:ARP:1,2009-12-02T02:48:00Z,28.4330,-82.6670,0.549,1111122 
COMPS,ioos:station:USF.COMPS:ARP:1,2009-12-02T02:54:00Z,28.4330,-82.6670,0.572,1111122 